Location: Newark
(16.3678°N, 77.8722°E)
Time: 22:48:46
(UTC+00:00)

S-56A Canister/Altair - Pass Details

Date: 12 December 2019
Orbit: 634 x 2498 km, 38.9° (Epoch: 18 January)

Event Time Altitude Azimuth Distance (km) Brightness Sun altitude
Rises 04:51:28 0° 269° (W) 5,431 11.6 42.2°
Reaches altitude 10° 04:55:12 10° 277° (W) 4,650 11.3 42.7°
Maximum altitude 05:07:26 37° 340° (NNW) 3,364 10.7 44.3°
Drops below altitude 10° 05:20:56 10° 43° (NE) 5,082 11.7 45.9°
Sets 05:25:18 0° 52° (NE) 5,970 12.0 46.3°
